Regional Weather Roundup
Issued by NWS Sioux Falls, SD

Home | Current Version | Previous Version | Text Only | Print | Product List | Glossary On
Versions: 1 2 3 4 5 6 7 8 9 10 11 12 13 14 15 16 17 18 19 20 21 22 23 24 25 26 27 28 29 30 31 32 33 34 35 36 37 38 39 40 41 42 43 44 45 46 47 48 49 50
000
ASUS43 KFSD 210910
RWRFSD

WEATHER ROUNDUP FOR SE SOUTH DAKOTA/SW MINNESOTA/NW IOWA
NATIONAL WEATHER SERVICE SIOUX FALLS SD
400 AM CDT MON AUG 21 2017

NOTE: "FAIR" INDICATES FEW OR NO CLOUDS BELOW 12,000 FEET WITH NO
SIGNIFICANT WEATHER AND OR OBSTRUCTIONS TO VISIBILITY.


SDZ038>040-050-052>070-211000-
SOUTHEAST SOUTH DAKOTA

CITY           SKY/WX    TMP DP  RH WIND       PRES   REMARKS
BROOKINGS      CLOUDY    63  59  87 E6        30.02R
CHAMBERLAIN    CLEAR     63  58  84 N5        29.98R
HURON          CLEAR     58  55  90 CALM      29.99R
MADISON        CLOUDY    59  59 100 E7        30.01S
MITCHELL       CLEAR     60  58  92 N6        29.98R
SIOUX FALLS    MOCLDY    67  64  90 E8        29.98F
WINNER         FAIR      63  61  93 N7        29.97S
YANKTON        CLOUDY    69  67  93 E7        29.96R
$$

MNZ071-072-080-081-089-090-097-098-211000-
SOUTHWEST MINNESOTA

CITY           SKY/WX    TMP DP  RH WIND       PRES   REMARKS
FAIRMONT       CLOUDY    70  67  90 S7        30.02
JACKSON        CLOUDY    66  64  94 CALM      30.02F
LUVERNE        MOCLDY    64  61  88 NE5       30.00F
MARSHALL       CLOUDY    61  60  97 W5        30.03S FOG
MONTEVIDEO     CLOUDY    57  55  94 S5        30.04R
PIPESTONE      CLEAR     66  61  82 E8        30.01F
REDWOOD FALLS  CLOUDY    64  59  83 E7        30.02S
TRACY          CLOUDY    63  63  98 CALM      30.03F
WINDOM         LGT RAIN  66  63  88 E5        30.03S
WORTHINGTON    MOCLDY    65  64  97 NE6       30.02S
$$

IAZ001>003-012>014-020>022-031-032-NEZ013-014-SDZ071-211000-
NORTHWEST IOWA

CITY           SKY/WX    TMP DP  RH WIND       PRES   REMARKS
CHEROKEE       TSTM      67  67 100 SE8       29.97F
ESTHERVILLE    CLOUDY    67  67 100 E5        30.01F
ORANGE CITY    CLOUDY    70  70 100 SE3       29.98F
SHELDON        CLOUDY    68  68 100 E7        29.97F
SIOUX CITY     CLOUDY    68  66  93 S8G20     29.97F
SPENCER        CLOUDY    70  69  97 E7        29.99F
STORM LAKE     RAIN      66  66 100 SE9G22    29.98F
$$

ABBREVIATIONS USED IN REMARKS
   TC - TEMPERATURE IN CELSIUS
  WCI - WIND CHILL INDEX
   HX - HEAT INDEX
  VSB - VISIBILITY





USA.gov is the U.S. government's official web portal to all federal, state and local government web resources and services.